Regional Weather Roundup
Issued by NWS

Home | Current Version | Previous Version | Graphics & Text | Print | Product List | Glossary On
Versions: 1 2 3 4 5 6 7 8 9 10 11 12 13 14 15 16 17 18 19 20 21 22 23 24 25 26 27 28 29 30 31 32 33 34 35 36 37 38 39 40 41 42 43 44 45 46 47 48 49
000
ASUS45 KBOU 071907
RWRCO

WEATHER ROUNDUP FOR COLORADO
NATIONAL WEATHER SERVICE DENVER/BOULDER CO
1200 PM MST SUN FEB 07 2016

NOTE: "FAIR" INDICATES FEW OR NO CLOUDS BELOW 12000 FEET WITH NO
SIGNIFICANT WEATHER AND/OR OBSTRUCTIONS TO VISIBILITY.

COZ001>005-013-030-031-072000-
...NORTHWEST COLORADO...

CITY           SKY/WX    TMP DP  RH WIND       PRES   REMARKS
CRAIG          CLOUDY    17   9  70 CALM      30.50F
HAYDEN         CLOUDY    19  10  68 CALM      30.48S
MEEKER         CLOUDY    26  15  63 CALM      30.49F
MOUNT WERNER   NOT AVBL
STEAMBOAT SPGS CLOUDY    25  14  63 W3        30.45S
WALDEN         CLOUDY    30  16  55 CALM      30.37R
$$

COZ006>008-011-072000-
...WEST CENTRAL VALLEYS...

CITY           SKY/WX    TMP DP  RH WIND       PRES   REMARKS
GRAND JUNCTION SUNNY     26  17  68 CALM      30.54F
MONTROSE       SUNNY     29  15  56 N5        30.53S WCI  24
EAGLE          MOSUNNY   25  12  58 CALM      30.47F
RIFLE          SUNNY     27  13  55 CALM      30.52F
DELTA          SUNNY     32  19  57 CALM      30.53F
NUCLA          SUNNY     30  18  59 N3        30.52F
$$

COZ017>023-064>068-072000-
...SOUTHWEST COLORADO...

CITY           SKY/WX    TMP DP  RH WIND       PRES   REMARKS
DURANGO        CLOUDY    26  15  63 NE6       30.40F WCI  19
CORTEZ         CLOUDY    39  20  46 W6        30.40F
PAGOSA SPRINGS CLOUDY    30  17  59 CALM      30.38F
TELLURIDE      SUNNY     37  11  33 W3        30.44F
WOLF CREEK PAS CLOUDY    30   7  37 W5        30.44F WCI  25
$$

COZ009-010-012-014-032>034-037-058>063-072000-
...CENTRAL COLORADO...

CITY           SKY/WX    TMP DP  RH WIND       PRES   REMARKS
ASPEN          CLOUDY    34  18  52 CALM      30.42F
BUENA VISTA    SUNNY     41  12  30 W23       30.27F
COPPER MTN     CLOUDY    21  10  63 W20G32    30.36S WCI   6
BERTHOUD PASS  LGT SNOW  10   0  61 NW44G54   30.27R VSB 1   WCI -15
COTTONWOOD PAS SUNNY     36   5  27 W32G54    30.27F
GUNNISON       CLOUDY     1 -11  55 E3        30.54F
KREMMLING      CLOUDY    28  14  54 CALM      30.44S
LEADVILLE      CLOUDY    26   9  48 NW14G26   30.38F WCI  14
MONARCH PASS   SUNNY     18  10  73 MISG      30.46F
SALIDA         NOT AVBL
SUNLIGHT       SUNNY     27  18  69 W3        30.43
WILKERSON PASS CLOUDY    25   7  46 NW17G31   30.33F WCI  11
$$

COZ069>075-072000-
...SAN LUIS VALLEY/SANGRE DE CRISTO MOUNTAINS...

CITY           SKY/WX    TMP DP  RH WIND       PRES   REMARKS
ALAMOSA        SUNNY     36  13  38 SW6       30.35F
LA VETA PASS   CLOUDY    34  12  40 S14G22    30.31S WCI  24
SAGUACHE       SUNNY     41  14  33 W3        30.36S
$$

COZ035-036-038>040-072000-
...NORTHERN COLORADO FRONT RANGE...

CITY           SKY/WX    TMP DP  RH WIND       PRES   REMARKS
DENVER INTL AP MOSUNNY   30  21  69 E17       30.33F WCI  18
DMNS CITY PARK   N/A     32  20  60 E13G18    30.34S WCI  23
AURORA         MOSUNNY   30  20  67 E9        30.34S WCI  22
FRONT RANGE AP MOSUNNY   28  19  69 E12       30.34F WCI  18
ERIE MUNI ARPT SUNNY     33  21  60 SE6       30.34F WCI  28
BOULDER MUN AP SUNNY     36  21  55 SE7       30.32F
CENTENNIAL     PTSUNNY   29  19  66 E9        30.33R WCI  20
BROOMFIELD     NOT AVBL
FORT COLLINS   SUNNY     30  21  69 S17       30.33F WCI  18
LONGMONT       SUNNY     38  22  51 SE7       30.36F
$$

COZ041-046-047-076>085-087-088-072000-
...PIKES PEAK/PALMER DIVIDE AND SOUTHERN FOOTHILLS...

CITY           SKY/WX    TMP DP  RH WIND       PRES   REMARKS
COLO. SPRINGS  MOSUNNY   32  19  58 E10       30.31S WCI  24
A. F. ACADEMY  SUNNY     33  17  51 SE12      30.28R WCI  24
SCHRIEVER AFB  FAIR      28  19  68 N13       30.31F WCI  18
ELLICOTT       NOT AVBL
FALCON         SUNNY     28  17  62 NE13      30.30F WCI  18
FORT CARSON    SUNNY     35  22  58 SE9       30.30S WCI  28
LIMON          MOSUNNY   27  20  75 N15       30.35S WCI  15
MONUMENT HILL  CLOUDY    25  18  74 E12       30.30F WCI  14
TRINIDAD       SUNNY     49  19  30 N5        30.26F
$$

COZ042>045-048>051-090-091-072000-
...NORTHEAST COLORADO...

CITY           SKY/WX    TMP DP  RH WIND       PRES   REMARKS
GREELEY ARPT   SUNNY     34  25  69 NE9       30.33F WCI  26
AKRON          CLOUDY    29  22  75 NW21G31   30.31F WCI  16
BURLINGTON     SUNNY     34  21  59 N21G28    30.32F WCI  22
WRAY           CLOUDY    37  25  60 NW17      30.31F
STERLING       SUNNY     32  23  69 N25G32    30.32F WCI  19
HOLYOKE        SUNNY     37  25  60 NW21G28   30.28F
FORT MORGAN    CLOUDY    34  20  57 N17G25    30.36S WCI  23
$$

COZ086-089-092>099-072000-
...SOUTHEAST COLORADO...

CITY           SKY/WX    TMP DP  RH WIND       PRES   REMARKS
PUEBLO         SUNNY     43  23  45 E17       30.31S
LA JUNTA       SUNNY     40  23  50 NE21      30.34F
LAMAR          SUNNY     43  21  41 N17G29    30.34S
SPRINGFIELD      N/A     44  21  40 N23       30.30S
$$



USA.gov is the U.S. government's official web portal to all federal, state and local government web resources and services.